Location: Newark
(46.9000°N, 28.3500°E)
Time: 20:21:08
(UTC+00:00)

Tiangong 2 - Visible Passes

Search period start: 17 July 2019 00:00
Search period end: 27 July 2019 00:00
Orbit: 378 x 386 km, 42.8° (Epoch: 17 July)

Date Brightness Start Highest point End Pass type
(mag) Time Alt. Az. Time Alt. Az. Time Alt. Az.
17 Jul 2.4 19:41:58 10° WSW 19:44:32 23° SSW 19:44:49 23° S visible
18 Jul 2.1 18:41:33 10° WSW 18:44:21 30° SSW 18:47:00 11° SE visible
19 Jul 3.0 19:18:11 10° WSW 19:20:20 17° SSW 19:21:20 15° S visible
21 Jul 3.5 18:54:49 10° SW 18:56:05 12° SSW 18:57:20 10° S visible
